Location: Berville
(49.1893°N, 2.0748°E)
Time: 16:42:52
(UTC+00:00)

Cosmos 2333 Rocket - Pass Details

Date: 08 February 2023
Orbit: 837 x 864 km, 70.8° (Epoch: 29 March)

Event Time Altitude Azimuth Distance (km) Brightness Sun altitude
Rises 18:53:47 0° 225° (SW) 3,384 6.1 -19.0°
Reaches altitude 10° 18:56:18 10° 231° (SW) 2,456 5.3 -19.4°
Maximum altitude 19:01:46 49° 306° (NW) 1,085 3.1 -20.3°
Drops below altitude 10° 19:07:17 10° 21° (NNE) 2,487 4.4 -21.2°
Enters shadow 19:08:06 - 24° (NNE) 2,783 4.7 -21.3°
